Tracking 32139 objects as of 14-Nov-2025
HD Live streaming from Space Station
objects crossing your sky now

PELICAN-3

Track PELICAN-3 now!
10-day predictions


NORAD ID: 65315
Int'l Code: 2025-188A
Perigee: 446.3 km
Apogee: 455.7 km
Inclination: 97.2 °
Period: 93.5 minutes
Semi major axis: 6822 km
RCS: Unknown
Launch date: August 26, 2025
Source: United States (US)
Launch site: AIR FORCE WESTERN TEST RANGE (AFWTR)
Your satellite tracking list
Your tracking list is empty




NASA's NSSDC Master Catalog

Two Line Element Set (TLE):
1 65315U 25188A   25317.21869193  .00024543  00000-0  60043-3 0  9995
2 65315  97.2421  30.9519 0006890 226.4647 133.6028 15.40757731 12060
Source of the keplerian elements: AFSPC